| time (UTC) | temp C | wind direction | speed KPH | gust KPH | rain 1hr cm | rain 24hr cm | rain mn cm | humidity % | barometer mb |
| 20260506224505 | 12 | 294 | 0.0 | 8.0 | 0.18 | 2.06 | 0.08 | 91 | 1006.8 |
| 20260506223004 | 12 | 264 | 1.6 | 4.8 | 0.20 | 2.03 | 0.05 | 91 | 1006.6 |
| 20260506221617 | 12 | 305 | 0.0 | 4.8 | 0.20 | 2.01 | 0.03 | 90 | 1006.4 |
| 20260506220047 | 12 | 54 | 6.4 | 16.1 | 0.18 | 1.96 | 1.96 | 90 | 1005.8 |
| 20260506214540 | 13 | 331 | 8.0 | 16.1 | 0.13 | 1.88 | 1.88 | 90 | 1006.0 |
| 20260506213038 | 13 | 331 | 3.2 | 9.7 | 0.13 | 1.83 | 1.83 | 90 | 1006.3 |
| 20260506211546 | 13 | 360 | 0.0 | 6.4 | 0.20 | 1.78 | 1.78 | 90 | 1006.6 |
| 20260506210022 | 13 | 320 | 0.0 | 12.9 | 0.36 | 1.78 | 1.78 | 90 | 1006.6 |
| 20260506204514 | 13 | 272 | 1.6 | 9.7 | 0.48 | 1.75 | 1.75 | 89 | 1006.1 |
| 20260506203015 | 13 | 308 | 1.6 | 8.0 | 0.56 | 1.68 | 1.68 | 89 | 1006.0 |
| 20260506161525 | 22 | 219 | 3.2 | 11.3 | 0.00 | 0.00 | 0.00 | 47 | 1004.5 |
| 20260506160008 | 22 | 212 | 3.2 | 12.9 | 0.00 | 0.00 | 0.00 | 45 | 1004.4 |
| 20260506154505 | 22 | 287 | 4.8 | 12.9 | 0.00 | 0.00 | 0.00 | 44 | 1004.5 |
| 20260506153005 | 22 | 186 | 1.6 | 14.5 | 0.00 | 0.00 | 0.00 | 46 | 1004.6 |
| 20260506151505 | 22 | 185 | 4.8 | 11.3 | 0.00 | 0.00 | 0.00 | 44 | 1004.5 |
| 20260506150057 | 22 | 175 | 6.4 | 12.9 | 0.00 | 0.00 | 0.00 | 48 | 1004.7 |
| 20260506144602 | 22 | 236 | 4.8 | 19.3 | 0.00 | 0.00 | 0.00 | 50 | 1004.8 |
| 20260506143051 | 22 | 90 | 1.6 | 20.9 | 0.00 | 0.00 | 0.00 | 50 | 1004.8 |
| 20260506141540 | 21 | 205 | 8.0 | 16.1 | 0.00 | 0.00 | 0.00 | 52 | 1005.0 |
| 20260506140028 | 21 | 233 | 4.8 | 24.1 | 0.00 | 0.00 | 0.00 | 52 | 1005.0 |
| 20260506134521 | 21 | 230 | 9.7 | 24.1 | 0.00 | 0.00 | 0.00 | 50 | 1005.1 |
| 20260506133017 | 21 | 205 | 9.7 | 17.7 | 0.00 | 0.00 | 0.00 | 51 | 1005.0 |
| 20260506131510 | 21 | 191 | 6.4 | 27.4 | 0.00 | 0.00 | 0.00 | 53 | 1005.2 |
| 20260506130107 | 20 | 225 | 8.0 | 16.1 | 0.00 | 0.00 | 0.00 | 53 | 1005.4 |